Regional Weather Roundup
Issued by NWS

Home | Current Version | Previous Version | Text Only | Print | Product List | Glossary Off
Versions: 1 2 3 4 5 6 7 8 9 10 11 12 13 14 15 16 17 18 19 20 21 22 23 24 25 26 27 28 29 30 31 32 33 34 35 36 37 38 39 40 41 42 43 44 45 46 47 48 49 50

000
ASUS43 KIND 281209
RWRIN

WEATHER ROUNDUP FOR INDIANA
NATIONAL WEATHER SERVICE INDIANAPOLIS IN
800 AM EDT SAT MAY 28 2016

NOTE: "FAIR" INDICATES FEW OR NO CLOUDS BELOW 12,000 FEET WITH NO
SIGNIFICANT WEATHER AND/OR OBSTRUCTIONS TO VISIBILITY.

* - STATION DOES NOT REPORT WEATHER SUCH AS PRECIPITATION OR FOG.

+ - STATION NOT QUALITY CONTROLLED BY THE NATIONAL WEATHER SERVICE.
    USE DATA WITH CAUTION...ESPECIALLY DEWPOINT AND RELATIVE
    HUMIDITY OBSERVATIONS.

INZ001>003-010>013-019-020-281300-
NORTHWEST INDIANA

CITY           SKY/WX    TMP DP  RH WIND       PRES   REMARKS
GARY /AIRPORT/ PTSUNNY   73  70  88 S10G23    29.90R
KNOX *+        CLOUDY    72  55  56 S12G18    29.95R
LA PORTE +     CLOUDY    73  66  78 S12       29.95R
6HR MIN TEMP:  70; 6HR MAX TEMP:  74;

MICHIGAN CITY+ CLOUDY    72  64  78 S9        29.93S
MONTICELLO +   CLOUDY    74  61  65 S8        29.96R
6HR MIN TEMP:  71; 6HR MAX TEMP:  74;

RENSSELAER +   CLOUDY    72  64  78 S16G23    29.95R
VALPARAISO     CLOUDY    72  64  76 S9        29.94R
6HR MIN TEMP:  68; 6HR MAX TEMP:  72;


$$

LMZ046-743>745-281300-
SOUTHERN LAKE MICHIGAN

STATION/POSITION TIME  TEMP    WIND        PRES    WAVE
                       AIR SEA DIR/SP/G            HT
                 (UTC) (F)     (DEG/KT/KT) (MB)    (FT)
BURNS HARBOR     1104   71     190/ 10/ 19 1012.9R
MICHIGAN CITY    1100   72     160/ 12/ 16   N/A
5NW MICH CITY    1100   69 58  190/ 14/ 17   N/A     1

$$

INZ004-005-014>016-021>024-281300-
NORTH CENTRAL INDIANA

CITY           SKY/WX    TMP DP  RH WIND       PRES   REMARKS
ELKHART        CLOUDY    73  68  83 S7        29.97
GOSHEN         CLOUDY    73  63  70 S12       29.97R
6HR MIN TEMP:  70; 6HR MAX TEMP:  74; 6HR PCP: TRACE;

LOGANSPORT +   CLOUDY    72  64  78 S9        29.99R
PERU/GRISSOM   CLOUDY    73  65  76 S12       29.98R
6HR MIN TEMP:  72; 6HR MAX TEMP:  74;

ROCHESTER +    CLOUDY    77  64  65 S8        29.98S
SOUTH BEND     CLOUDY    74  63  68 S18       29.95R
6HR MIN TEMP:  70; 6HR MAX TEMP:  74;

WARSAW +       CLOUDY    72  64  78 S6        29.99R

$$

INZ006>009-017-018-025>027-281300-
NORTHEAST INDIANA

CITY           SKY/WX    TMP DP  RH WIND       PRES   REMARKS
ANGOLA *+        N/A     72  64  78 S6        30.00S
AUBURN +       MOSUNNY   73  63  68 S5        30.02R
FORT WAYNE     CLOUDY    72  64  76 S9        30.01R
6HR MIN TEMP:  70; 6HR MAX TEMP:  72;

HUNTINGTON +   CLOUDY   N/A N/A N/A S7        30.00S

$$

INZ028-029-035-036-043>045-051>053-281300-
WEST CENTRAL INDIANA

CITY           SKY/WX    TMP DP  RH WIND       PRES   REMARKS
CRAWFORDSVL +  CLOUDY    71  64  79 S15       29.99R
6HR MIN TEMP:  70; 6HR MAX TEMP:  72;

GREENCASTLE +  CLOUDY    72  66  83 S6        30.01R
LAFAYETTE      CLOUDY    73  64  73 S6        29.96R
6HR MIN TEMP:  69; 6HR MAX TEMP:  74;

TERRE HAUTE    CLOUDY    73  65  75 S10       29.98R
6HR MIN TEMP:  71; 6HR MAX TEMP:  75;


$$

INZ030>032-037>040-046>048-054>057-064-065-281300-
CENTRAL INDIANA

CITY           SKY/WX    TMP DP  RH WIND       PRES   REMARKS
CP ATTERBURY + CLOUDY    70  64  83 CALM      30.03R
FISHERS *+     CLOUDY    70  66  88 S9        30.02
FRANKFORT +      N/A     74  56  53 S8        30.01R
6HR MIN TEMP:  72; 6HR MAX TEMP:  75;

GREENWOOD *+   CLOUDY    72  64  78 S9        30.03R
INDIANAPOLIS   CLOUDY    72  65  78 S12       29.99R
6HR MIN TEMP:  71; 6HR MAX TEMP:  74; 6HR PCP: TRACE;

-EAGLE CREEK   MOSUNNY   72  64  76 S7        30.00R
6HR MIN TEMP:  72; 6HR MAX TEMP:  76;

KOKOMO *+      CLOUDY    72  63  73 S10       29.99S
6HR MIN TEMP:  72; 6HR MAX TEMP:  73;

MARION +       CLOUDY    72  64  75 S9        30.01S HAZE
SHELBYVILLE    MOSUNNY   73  65  75 S9        30.02R
6HR MIN TEMP:  72; 6HR MAX TEMP:  76; 6HR PCP: TRACE;

ZIONSVILLE +   CLOUDY    71  64  79 S9        30.02S
6HR MIN TEMP:  71; 6HR MAX TEMP:  74;


$$

INZ033-034-041-042-049-050-058-059-281300-
EAST CENTRAL INDIANA

CITY           SKY/WX    TMP DP  RH WIND       PRES   REMARKS
MUNCIE         CLOUDY    73  64  73 S9        30.03R
6HR MIN TEMP:  72; 6HR MAX TEMP:  75; 6HR PCP: TRACE;


$$

INZ060-061-067>069-081>083-085>088-281300-
SOUTHWEST INDIANA

CITY           SKY/WX    TMP DP  RH WIND       PRES   REMARKS
EVANSVILLE     CLOUDY    71  66  84 SE5       30.01R
6HR MIN TEMP:  70; 6HR MAX TEMP:  76;

HUNTINGBURG *+ CLOUDY    72  64  78 S7        30.02R
6HR MIN TEMP:  70; 6HR MAX TEMP:  75;

WASHINGTON +   CLOUDY    71  67  86 S8        30.00R
6HR MIN TEMP:  71; 6HR MAX TEMP:  74;


$$

INZ062-063-066-070>080-084-089>092-281300-
SOUTH CENTRAL AND SOUTHEAST INDIANA

CITY           SKY/WX    TMP DP  RH WIND       PRES   REMARKS
BEDFORD +      CLOUDY    70  70 100 S5        30.02R
BLOOMINGTON    CLOUDY    71  64  78 S6        30.02R
6HR MIN TEMP:  70; 6HR MAX TEMP:  74;

MADISON *+     CLOUDY    70  64  83 S6        30.08R
NORTH VERNON + CLOUDY    72  72 100 CALM      30.05R
SEYMOUR +      CLOUDY    72  66  83 SE8       30.04R

$$




USA.gov is the U.S. government's official web portal to all federal, state and local government web resources and services.